This is the latest recevied weather packets stored in our database for station/object SQ6XL-13. If no packets are shown the sender has not sent any weather packets the latest 10 day(s).
| Time | Temp. | Humidity | Pressure | Rain* | Wind** | Luminosity | Snow |
|---|---|---|---|---|---|---|---|
| 1777779916 | 12.22° C | 60% | 1018 hPa | 0 mm | - | - | - |
| 1777779382 | 12.78° C | 59% | 1017.9 hPa | 0 mm | - | - | - |
| 1777778842 | 12.22° C | 60% | 1017.9 hPa | 0 mm | - | - | - |
| 1777778271 | 12.22° C | 62% | 1017.9 hPa | 0 mm | - | - | - |
| 1777777782 | 11.11° C | 66% | 1017.9 hPa | 0 mm | - | - | - |
| 1777777291 | 10° C | 70% | 1017.9 hPa | 0 mm | - | - | - |
| 1777776702 | 9.44° C | 73% | 1018.1 hPa | 0 mm | - | - | - |
| 1777776187 | 8.89° C | 75% | 1017.9 hPa | 0 mm | - | - | - |
| 1777775687 | 8.33° C | 75% | 1018 hPa | 0 mm | - | - | - |
| 1777775182 | 8.33° C | 75% | 1018.1 hPa | 0 mm | - | - | - |
| 1777774667 | 8.33° C | 78% | 1018.1 hPa | 0 mm | - | - | - |
| 1777774131 | 7.22° C | 81% | 1018.2 hPa | 0 mm | - | - | - |
| 1777773652 | 6.67° C | 81% | 1018.3 hPa | 0 mm | - | - | - |
| 1777773122 | 6.11° C | 81% | 1018.2 hPa | 0 mm | - | - | - |
| 1777772557 | 5.56° C | 82% | 1018.3 hPa | 0 mm | - | - | - |
| 1777772007 | 5.56° C | 82% | 1018.2 hPa | 0 mm | - | - | - |
| 1777771487 | 5.56° C | 82% | 1018.2 hPa | 0 mm | - | - | - |
| 1777770962 | 5.56° C | 82% | 1018.3 hPa | 0 mm | - | - | - |
| 1777770407 | 5° C | 82% | 1018.3 hPa | 0 mm | - | - | - |
| 1777769862 | 5° C | 82% | 1018.5 hPa | 0 mm | - | - | - |
| 1777769371 | 5° C | 82% | 1018.5 hPa | 0 mm | - | - | - |
| 1777768862 | 5° C | 83% | 1018.5 hPa | 0 mm | - | - | - |
| 1777768377 | 5° C | 83% | 1018.6 hPa | 0 mm | - | - | - |
| 1777767797 | 5° C | 82% | 1018.7 hPa | 0 mm | - | - | - |
| 1777767247 | 5° C | 81% | 1018.8 hPa | 0 mm | - | - | - |
* Rain latest hour (hover to see other rain measurements)
** Current wind speed in m/s (hover to see current wind gust speed)